Location: Zagreb
(45.8000°N, 16.0000°E)
Time: 00:46:43
(UTC+01:00)

Explorer 7 - All Passes

Search period start: 26 January 2020 00:00
Search period end: 05 February 2020 00:00
Orbit: 485 x 679 km, 50.3° (Epoch: 25 January)

Date Brightness Start Highest point End Pass type
(mag) Time Alt. Az. Time Alt. Az. Time Alt. Az.
26 Jan - 01:20:03 10° WNW 01:23:38 41° N 01:27:18 10° ENE night (unlit)
26 Jan - 03:00:39 10° WNW 03:04:27 74° NNE 03:08:25 10° ESE night (unlit)
26 Jan - 04:41:23 10° W 04:44:43 27° SW 04:48:11 10° SSE visible
26 Jan - 22:03:37 10° SW 22:07:18 49° SSE 22:10:56 10° ENE night (unlit)
26 Jan - 23:44:07 10° W 23:47:47 51° NNW 23:51:30 10° ENE night (unlit)
27 Jan - 01:25:05 10° WNW 01:28:42 43° N 01:32:24 10° E night (unlit)
27 Jan - 03:05:35 10° WNW 03:09:24 81° SSW 03:13:22 10° ESE night (unlit)
27 Jan - 04:46:48 10° W 04:49:28 18° SW 04:52:13 10° S visible
27 Jan - 20:29:56 10° S 20:32:12 15° SE 20:34:26 10° E night (unlit)
27 Jan - 22:08:23 10° WSW 22:12:11 75° SSE 22:15:56 10° ENE night (unlit)
27 Jan - 23:49:13 10° W 23:52:50 43° N 23:56:28 10° ENE night (unlit)
28 Jan - 01:30:05 10° WNW 01:33:45 49° NNE 01:37:31 10° E night (unlit)
28 Jan - 03:10:34 10° WNW 03:14:17 55° SSW 03:18:10 10° SE night (unlit)
28 Jan - 04:53:09 10° WSW 04:54:10 11° SW 04:55:11 10° SSW visible
28 Jan - 20:33:48 10° SSW 20:36:56 24° SE 20:40:00 10° E night (unlit)
28 Jan - 22:13:18 10° WSW 22:17:07 78° NNW 22:20:52 10° ENE night (unlit)
28 Jan - 23:54:19 10° WNW 23:57:54 40° N 00:01:30 10° ENE night (unlit)
29 Jan - 01:35:02 10° WNW 01:38:45 61° NNE 01:42:36 10° E night (unlit)
29 Jan - 03:15:37 10° WNW 03:19:08 35° SW 03:22:46 10° SSE night (unlit)
29 Jan - 20:38:08 10° SSW 20:41:43 37° SE 20:45:13 10° ENE night (unlit)
29 Jan - 22:18:20 10° W 22:22:05 59° NNW 22:25:48 10° ENE night (unlit)
29 Jan - 23:59:23 10° WNW 00:02:58 41° N 00:06:34 10° ENE night (unlit)
30 Jan - 01:39:58 10° WNW 01:43:44 81° NNE 01:47:37 10° ESE night (unlit)
30 Jan - 03:20:51 10° W 03:23:55 23° SW 03:27:04 10° SSE night (unlit)
30 Jan - 19:05:33 10° SSE 19:06:42 11° SE 19:07:49 10° ESE visible
30 Jan - 20:42:45 10° SW 20:46:33 57° SSE 20:50:15 10° ENE night (unlit)
30 Jan - 22:23:25 10° W 22:27:06 48° NNW 22:30:46 10° ENE night (unlit)
31 Jan - 00:04:24 10° WNW 00:08:01 44° N 00:11:40 10° E night (unlit)
31 Jan - 01:44:54 10° WNW 01:48:40 72° SSW 01:52:31 10° SE night (unlit)
31 Jan - 03:26:27 10° W 03:28:38 15° SW 03:30:51 10° S night (unlit)
31 Jan - 19:08:39 10° S 19:11:23 18° SE 19:14:03 10° E visible
31 Jan - 20:47:34 10° WSW 20:51:27 84° SSE 20:55:13 10° ENE visible
31 Jan - 22:28:31 10° W 22:32:10 42° N 22:35:45 10° ENE night (unlit)
01 Feb - 00:09:22 10° WNW 00:13:03 52° NNE 00:16:46 10° E night (unlit)
01 Feb - 01:49:54 10° WNW 01:53:32 47° SSW 01:57:15 10° SE night (unlit)
01 Feb - 19:12:43 10° SSW 19:16:07 28° SE 19:19:27 10° E visible
01 Feb - 20:52:31 10° WSW 20:56:24 71° NNW 21:00:10 10° ENE visible
01 Feb - 22:33:37 10° WNW 22:37:13 40° N 22:40:47 10° ENE night (unlit)
02 Feb - 00:14:19 10° WNW 00:18:03 66° NNE 00:21:50 10° ESE night (unlit)
02 Feb - 01:55:01 10° W 01:58:21 30° SW 02:01:45 10° SSE night (unlit)
02 Feb - 19:17:10 10° SW 19:20:56 43° SE 19:24:35 10° ENE visible
02 Feb - 20:57:34 10° W 21:01:23 55° NNW 21:05:06 10° ENE visible
02 Feb - 22:38:40 10° WNW 22:42:17 41° N 22:45:52 10° ENE night (unlit)
03 Feb - 00:19:15 10° WNW 00:23:01 89° NE 00:26:49 10° ESE night (unlit)
03 Feb - 02:00:20 10° W 02:03:06 20° SW 02:05:56 10° S night (unlit)
03 Feb - 17:43:47 10° SSE 17:45:50 14° SE 17:47:51 10° ESE visible
03 Feb - 19:21:51 10° SW 19:25:48 65° SSE 19:29:35 10° ENE visible
03 Feb - 21:02:40 10° W 21:06:24 46° N 21:10:03 10° ENE visible
03 Feb - 22:43:40 10° WNW 22:47:20 46° N 22:50:58 10° E night (unlit)
04 Feb - 00:24:12 10° WNW 00:27:55 63° SSW 00:31:40 10° SE night (unlit)
04 Feb - 02:06:15 10° WSW 02:07:48 12° SW 02:09:22 10° SSW night (unlit)
04 Feb - 17:47:25 10° S 17:50:33 22° SE 17:53:35 10° E visible
04 Feb - 19:26:44 10° WSW 19:30:42 87° NNW 19:34:32 10° ENE visible
04 Feb - 21:07:46 10° WNW 21:11:28 42° N 21:15:04 10° ENE visible
04 Feb - 22:48:37 10° WNW 22:52:21 55° NNE 22:56:04 10° E night (unlit)
